Theta_e
340 346 350 352 351 351 350 348 347 348 345 344 344 345 346 347 348 348 347 347 345 341 341 340 339 338 340 339 338 338 337 336 337 337 337 337 335 335 334 335 334 327 333
342 346 348 350 352 351 350 350 348 347 345 342 343 345 346 347 348 347 346 346 343 341 339 338 337 336 337 337 336 336 336 335 336 337 337 336 337 337 337 335 336 328 332
342 345 346 348 350 351 350 350 348 346 345 343 344 346 347 348 348 346 345 345 344 340 339 338 336 335 335 334 335 335 333 331 333 334 334 325 326 334 335 335 334 333 334
342 344 345 345 349 350 349 348 347 346 348 347 346 347 346 346 346 346 344 344 341 339 339 338 336 335 332 331 331 331 332 333 334 332 322 323 325 332 331 331 332 331 331
340 342 343 344 348 349 349 348 346 346 347 348 347 347 347 345 345 345 344 342 341 338 338 337 337 336 334 332 331 332 332 331 332 327 322 322 323 329 331 330 329 329 330
337 341 341 345 347 348 347 347 347 347 346 348 347 348 347 345 345 344 343 342 341 337 338 337 336 336 335 334 331 329 329 329 325 320 322 327 324 331 331 331 331 330 331
335 339 342 343 345 347 347 348 347 346 345 346 346 347 346 346 345 344 343 340 337 336 337 339 338 335 334 332 329 327 327 328 318 318 321 323 326 330 330 329 329 329 329
336 339 341 337 340 343 345 346 346 344 345 345 345 346 345 344 344 343 342 340 337 334 334 334 333 331 329 328 326 325 325 325 318 316 317 320 330 331 330 331 330 329 328
336 338 339 340 339 337 339 340 341 342 342 342 342 342 341 341 340 340 338 337 334 333 332 331 330 328 327 325 324 323 323 323 314 316 321 322 332 330 329 330 331 331 331
335 338 339 338 339 338 337 333 335 337 338 338 336 333 331 332 332 331 329 333 333 332 330 329 328 327 327 326 326 325 323 323 316 317 318 322 330 330 330 330 330 331 332
332 335 338 338 337 337 337 331 332 332 332 331 330 326 325 327 326 327 327 331 333 331 329 328 327 326 327 326 325 325 323 320 317 318 319 328 331 332 332 332 332 333 334
327 331 336 336 336 337 337 333 333 333 332 331 328 325 325 324 326 328 324 327 329 328 330 328 326 325 322 318 317 321 319 318 318 317 320 329 330 330 332 333 335 335 335
327 329 334 335 336 336 334 333 332 331 329 329 327 326 325 324 326 325 323 323 322 321 321 324 322 319 318 317 318 318 319 319 318 318 322 327 329 329 331 332 333 334 335
326 326 331 333 335 334 334 333 330 328 326 325 326 326 323 323 322 323 322 321 319 319 317 318 320 319 318 320 320 320 320 319 319 319 319 322 328 328 329 331 332 334 336
327 325 328 327 333 334 334 333 331 328 325 325 324 325 324 322 321 322 322 322 320 317 319 319 319 320 319 319 319 320 320 319 320 320 319 319 325 329 330 331 332 334 334
329 327 325 324 333 333 333 333 332 331 328 324 324 325 325 323 322 323 324 322 320 321 320 320 319 318 317 319 320 320 320 320 320 320 321 323 324 329 331 332 333 334 333
331 331 329 325 332 333 333 333 335 333 329 326 325 325 325 325 323 322 320 320 320 320 321 320 320 319 319 322 318 322 323 322 322 322 320 322 323 322 326 331 332 330 331
331 330 331 331 329 331 331 333 333 334 329 327 326 325 326 326 325 323 322 321 322 322 321 324 323 322 321 319 316 319 318 318 321 323 320 321 322 321 321 323 325 330 332
331 330 330 330 329 329 329 332 331 333 330 328 327 326 326 326 326 324 326 326 325 325 325 325 325 323 320 319 316 315 315 317 322 320 320 322 319 318 317 317 315 318 326
330 330 330 331 330 329 329 327 326 329 329 330 330 329 328 326 326 328 328 328 327 326 326 325 322 323 321 320 320 319 319 322 317 317 319 320 318 317 317 316 313 311 315
328 328 329 329 330 330 328 324 323 324 329 330 331 331 331 329 329 329 328 328 328 326 326 324 323 322 321 322 319 319 319 320 316 316 317 317 316 315 312 310 310 307 305
313 324 327 328 329 329 329 328 326 325 327 331 332 331 332 331 330 329 328 327 327 326 325 324 322 320 320 322 317 316 313 312 315 315 313 313 308 309 307 305 302 300 300
306 310 313 320 328 329 329 328 329 330 327 327 330 330 330 330 330 329 329 329 327 327 325 324 323 321 319 321 321 317 311 308 312 314 313 309 306 303 301 299 299 298 297
301 305 309 311 314 317 324 328 326 325 324 326 327 328 330 331 331 330 330 329 328 327 325 325 324 323 321 319 320 320 319 318 310 308 309 303 302 300 298 297 295 294 294
299 301 305 309 309 310 315 320 326 325 327 328 326 327 328 328 330 330 330 329 328 327 326 325 323 321 321 321 321 320 319 319 319 314 307 301 298 297 296 294 294 291 291
297 299 301 302 303 306 309 310 312 316 319 320 320 323 324 326 325 325 326 326 325 326 325 325 325 324 323 324 323 322 320 317 316 316 313 304 298 294 292 291 291 290 290
Wind_Speed
12 13 17 18 19 18 16 16 16 14 14 14 14 14 13 13 14 15 17 18 17 17 18 17 17 17 17 17 16 16 19 16 16 17 16 16 16 16 17 15 11 11 13
16 16 17 18 18 18 16 16 15 14 14 15 15 14 13 13 15 17 18 19 18 18 18 17 17 17 16 15 14 15 13 11 11 12 14 12 14 16 16 15 10 11 12
15 15 14 17 17 18 17 15 14 14 14 16 15 15 14 15 19 19 19 17 17 17 18 18 17 16 16 14 12 11 10 10 8 8 13 6 7 13 14 15 14 13 13
16 13 13 16 17 18 17 16 14 14 14 15 15 15 17 18 20 20 19 17 15 16 17 17 17 16 15 13 11 10 11 13 14 12 5 6 6 13 12 12 12 12 11
16 13 12 14 17 19 17 16 13 13 13 14 15 16 18 17 18 18 19 15 14 15 16 17 16 15 14 12 11 10 12 12 11 10 7 6 4 9 11 11 10 10 9
15 13 13 14 17 18 16 15 13 12 15 16 16 16 17 17 16 17 18 16 14 14 15 15 15 14 12 11 9 8 11 13 9 7 6 7 5 9 10 9 8 8 7
14 13 13 14 16 16 15 14 13 13 16 16 16 17 17 16 16 17 17 17 16 13 14 14 15 13 11 9 8 8 10 11 6 6 6 6 5 8 8 8 7 6 5
15 14 12 12 13 14 14 14 14 15 17 17 15 16 16 16 15 15 16 17 15 14 13 13 12 11 10 8 7 7 8 8 5 6 5 4 6 7 7 7 7 6 5
14 12 10 9 10 13 13 13 13 14 15 16 15 14 14 13 13 11 14 14 11 13 11 11 11 10 9 7 5 5 6 6 4 4 5 3 5 5 5 6 6 6 6
13 12 11 9 8 8 9 14 14 14 14 14 13 12 12 12 11 10 12 12 12 11 10 9 9 8 7 5 3 2 5 7 4 5 3 3 5 6 6 5 5 5 7
10 12 11 10 9 9 10 11 13 13 14 13 12 12 10 6 7 8 11 11 10 9 9 8 6 5 4 1 2 1 3 2 1 3 2 5 5 5 5 5 5 6 8
13 13 12 11 10 10 8 9 8 9 6 6 6 7 5 6 5 7 8 10 9 8 7 7 5 3 1 1 2 5 2 3 3 3 2 6 5 4 4 6 9 9 10
15 12 14 13 12 10 8 6 5 5 4 5 6 5 5 5 5 4 3 3 3 5 2 4 2 1 2 3 2 1 1 3 2 2 3 5 4 3 4 5 7 9 9
13 14 14 13 13 11 7 6 6 6 5 4 5 6 5 5 5 5 4 4 4 3 4 2 2 3 2 1 1 2 2 2 1 2 3 4 2 4 5 5 7 8 8
9 13 14 11 13 12 11 6 6 6 6 6 5 5 5 5 5 4 4 4 4 4 3 4 4 2 1 1 1 2 2 2 3 0 2 5 5 6 7 6 6 6 6
14 13 10 9 13 13 10 10 6 6 7 6 4 5 7 5 5 4 4 5 4 4 3 3 3 2 1 2 1 3 4 3 2 2 2 4 9 8 10 8 8 8 7
12 6 8 8 13 13 12 10 7 7 6 6 5 6 7 6 5 5 4 4 4 3 5 3 2 2 1 1 2 4 2 3 3 3 3 5 7 8 11 13 13 7 6
11 9 6 7 11 13 10 8 7 6 6 6 4 4 6 7 7 5 4 4 4 4 4 2 2 2 2 1 2 2 2 2 3 1 4 5 5 4 8 13 16 18 11
14 10 8 6 9 9 7 6 5 6 5 7 6 5 6 6 6 5 4 4 5 4 3 3 1 2 2 1 2 4 3 3 1 2 7 8 7 5 5 11 16 16 18
13 12 11 8 7 6 5 5 4 4 4 5 6 6 7 5 6 5 4 4 4 4 4 3 3 4 2 2 2 3 2 2 3 4 6 6 6 6 4 6 5 10 17
12 12 10 10 9 7 3 4 3 3 4 4 4 8 7 7 6 5 4 4 4 4 5 4 3 3 1 2 1 2 1 1 3 4 4 5 6 6 8 8 5 4 6
9 6 11 11 10 8 5 3 3 4 2 5 4 6 7 8 7 6 6 5 5 4 5 5 4 2 2 3 2 0 0 1 3 4 4 6 7 6 8 9 9 9 7
11 9 8 5 6 6 5 4 2 4 3 2 3 3 4 8 7 6 7 6 6 5 5 5 5 5 3 3 5 3 1 4 3 1 4 5 7 6 6 7 8 8 8
10 8 8 8 8 7 3 5 5 4 4 4 4 3 4 8 9 9 8 6 5 4 5 5 5 4 4 3 1 4 3 1 3 3 2 4 5 6 6 5 5 7 6
9 8 6 8 9 8 6 5 1 2 1 3 3 5 7 6 5 5 5 6 5 4 4 5 3 3 3 3 3 2 3 3 5 3 3 3 4 5 5 5 5 5 5
10 9 6 9 9 9 8 8 7 7 4 3 3 3 2 3 5 4 3 1 1 2 2 2 4 5 4 5 3 4 3 2 2 4 4 2 4 4 5 4 4 3 3
Wind_Direction
149 153 151 147 145 140 139 133 127 123 120 118 117 114 113 110 115 121 117 107 98 98 96 95 94 90 86 86 82 77 87 86 82 70 67 77 76 73 78 76 59 69 78
139 147 149 146 145 142 139 134 129 126 124 124 123 118 119 121 127 123 113 107 103 99 99 98 96 94 92 91 91 89 87 78 77 61 76 60 68 66 72 62 68 74 63
136 143 146 143 145 142 138 133 133 132 131 127 125 121 117 127 127 122 112 107 103 104 104 100 98 96 93 91 93 90 79 53 25 89 91 69 59 69 67 64 53 60 60
137 143 146 141 140 138 134 135 137 139 136 130 130 120 113 113 116 111 107 98 102 103 106 105 103 97 93 89 83 63 46 33 38 86 65 70 60 70 71 67 63 58 55
138 142 145 139 142 135 137 139 143 141 139 137 131 128 119 114 113 113 101 102 107 106 110 106 102 99 94 87 75 52 36 19 30 80 83 76 58 71 70 68 62 59 50
140 140 142 142 138 135 138 139 145 142 139 133 132 124 120 117 111 104 108 108 99 106 112 109 103 101 95 88 72 51 36 35 70 75 72 59 48 65 65 64 60 58 52
136 140 141 140 139 140 139 147 145 141 136 124 120 122 122 119 117 113 112 110 106 103 103 101 105 102 97 86 65 40 33 25 29 93 85 74 23 64 58 52 48 42 28
135 142 142 137 139 144 142 145 135 139 131 121 117 116 118 122 119 122 125 118 111 109 105 103 102 101 94 82 63 34 24 25 21 84 83 71 36 31 49 45 39 31 17
132 135 131 135 138 132 133 133 133 132 123 119 117 115 113 113 110 121 105 99 109 108 110 106 104 102 97 85 65 26 359 19 9 98 103 88 41 40 26 28 20 12 349
133 135 135 130 128 128 132 124 124 123 118 116 114 110 106 109 107 93 93 104 111 121 117 114 112 108 105 104 94 15 354 354 26 119 107 96 58 28 30 16 0 343 324
141 141 137 136 131 126 124 121 117 122 122 121 120 122 112 119 106 95 105 117 121 124 126 123 124 127 127 124 271 310 354 310 45 124 124 107 71 33 14 7 331 313 309
154 152 147 143 138 137 132 127 124 127 130 130 135 144 132 121 123 120 122 128 134 140 143 148 162 155 109 293 316 326 309 297 11 153 138 109 81 39 3 359 349 357 356
160 154 154 151 145 143 140 135 134 135 133 141 154 155 136 122 125 127 126 132 143 157 180 175 159 192 223 182 172 222 290 33 45 126 152 131 114 44 18 358 351 351 348
164 153 158 156 149 146 147 148 148 147 143 153 168 159 134 135 142 149 149 164 167 177 194 208 188 199 146 2 34 349 342 342 313 121 183 156 105 43 14 353 349 349 357
158 155 169 149 150 147 152 148 158 155 154 163 162 160 159 145 154 154 169 172 180 170 199 192 179 157 187 250 258 229 271 294 293 178 187 193 93 50 22 10 357 4 64
158 161 170 148 149 146 154 153 158 161 156 153 157 168 150 154 155 185 172 175 195 177 162 141 138 138 162 193 296 270 247 261 262 235 172 121 83 69 49 32 31 38 58
156 149 147 146 142 141 150 157 157 163 149 154 165 166 157 165 170 153 145 153 166 142 132 116 130 93 138 193 24 313 214 282 254 212 123 114 94 61 67 45 34 28 38
142 149 143 133 138 141 145 153 153 157 151 152 159 163 163 166 159 164 153 164 157 144 147 188 156 148 169 77 335 306 353 327 326 250 120 126 106 94 69 56 42 37 61
152 153 139 139 132 131 142 146 134 162 155 160 158 166 171 165 166 173 166 177 163 162 168 170 169 162 192 213 221 242 260 294 58 77 103 122 119 116 102 76 56 43 43
144 147 155 150 144 140 136 141 139 151 168 143 158 172 171 174 179 179 167 162 157 158 164 159 175 202 193 232 266 279 261 249 114 114 115 121 122 121 118 92 68 52 51
143 142 155 153 164 169 143 157 150 170 155 132 161 171 175 178 182 157 152 145 155 168 177 180 175 196 243 229 324 315 357 153 120 94 81 98 89 73 71 64 68 60 48
67 126 152 162 163 182 167 151 155 156 169 172 167 180 180 173 180 171 170 179 175 165 183 186 179 170 223 188 184 185 256 4 63 54 78 96 96 91 76 63 65 63 52
58 49 61 71 156 165 157 138 125 121 96 132 171 181 189 180 183 182 189 188 185 178 194 189 186 186 205 229 213 183 181 226 124 66 38 76 83 79 84 78 66 68 71
46 32 53 55 58 44 31 157 161 167 155 185 190 202 206 189 188 193 196 185 178 190 192 195 194 195 180 218 233 243 264 191 188 179 139 75 77 75 63 73 70 67 50
35 37 29 63 52 36 44 34 166 185 169 48 33 241 208 191 159 152 179 188 189 193 207 200 193 209 210 192 196 210 228 225 214 211 186 159 84 68 70 69 69 66 52
28 37 21 61 51 50 40 40 56 60 68 76 36 27 88 84 88 78 40 352 241 207 253 226 208 215 227 223 213 219 226 221 204 207 205 132 126 86 77 68 70 71 69